Погода в Масане

Южная Корея     35°15′15″N   128°37′36″E
темп.,
°C
ветер,
м/с
пор.,
м/с
влажн.,
%
обл.,
%
осадки,
мм/ч
давл.,
гПа
погр.,
м
22 января, пт
пт2200:00+6св1193100 2.4 101942
03:00+6с1196100 3.2 101828
06:00+6сз1197100 0.1 101733
09:00+7ссз2295100 0.1 1018109
12:00+11сз237998 0.0 1018336
15:00+13сз126998 0.0 1016548
18:00+11ю118399 0.0 101739
21:00+10ссв1190100 0.0 101825
23 января, сб
сб2300:00+9ссв1292100 0.0 101840
03:00+8с1293100 0.0 101762
06:00+7с249296 0.0 1017154
09:00+7с269198 0.4 1018350
12:00+8с21189100 2.9 1018823
15:00+8ссв31185100 4.4 1017903
18:00+8с31182100 0.1 1018830
21:00+6с3108399 0.1 1020752
24 января, вс
вс2400:00+5с398299 0.0 1021594
03:00+4ссз268672 0.0 1022270
06:00+3ссз24886 0.0 1023140
09:00+4ссз25836 0.0 1025225
12:00+9ссв366019 0.0 10261074
15:00+10св355626 0.0 10251100
18:00+7св24673 0.0 1027229
21:00+5св12764 0.0 1028106
25 января, пн
пн2500:00+3с11830 0.0 102857
03:00+2ссз12862 0.0 102968
06:00+2с128725 0.0 102962
09:00+3с227916 0.0 1030106
12:00+10св14559 0.0 1029673
15:00+11вюв235052 0.0 1027909
18:00+8в2368100 0.0 1026149
21:00+7св1177100 0.0 102624
26 января, вт
вт2600:00+6с1180100 0.0 102526
03:00+5с1183100 0.0 102424
06:00+6св1183100 0.0 102226
09:00+7в2286100 0.3 102067
12:00+8юв31196100 6.8 1016691
15:00+8сз2297100 18.9 1015118
18:00+6ссз2592100 0.1 1017279
21:00+5ссз388790 0.1 1019400